Location: Unspecified
(42.3650°N, 71.1030°W)
Time: 13:51:23
(UTC+00:00)

Explorer 11/Cluster Stage 4 - Pass Details

Date: 22 June 2024
Orbit: 465 x 1215 km, 28.8° (Epoch: 21 July)

Event Time Altitude Azimuth Distance (km) Brightness Sun altitude
Rises 05:13:21 0° 257° (WSW) 3,963 10.0 -23.9°
Enters shadow 05:13:53 - 255° (WSW) 3,804 9.9 -23.9°
Reaches altitude 10° 05:17:18 10° 239° (WSW) 2,884 - -23.8°
Maximum altitude 05:21:42 18° 201° (SSW) 2,211 - -23.7°
Drops below altitude 10° 05:25:40 10° 161° (SSE) 2,544 - -23.6°
Sets 05:28:52 0° 142° (SE) 3,325 - -23.5°
